Ft Pierce, FL

1:09 AM EDT on March 27, 2017 (GMT -0400)
Saint Lucie County International

Weather History for KFPR - January, 2013

Change the Weather History Date:

Wednesday, January 9, 2013

  Actual Average Record
Temperature  
Mean Temperature 75 °F -  
Max Temperature 80 °F 74 °F 86 °F (1934)
Min Temperature 70 °F 53 °F 30 °F (1958)
Cooling Degree Days 10    
Growing Degree Days 25 (Base 50)    
Moisture  
Dew Point 70 °F    
Average Humidity 84    
Maximum Humidity 94    
Minimum Humidity 70    
Precipitation  
Precipitation 0.04 in - - ()
Sea Level Pressure  
Sea Level Pressure 30.25 in    
Wind  
Wind Speed 11 mph (ESE)    
Max Wind Speed 18 mph    
Max Gust Speed 23 mph    
Visibility 9 miles    
Events Rain    
Averages and records for this station are not official NWS values.
T = Trace of Precipitation, MM = Missing Value Source: NWS Daily Summary

Daily Weather History Graph

Daily Weather History Graph

Search for Another Location

Airport or City:

Trip Planner

Search our weather history database for the weather conditions in past years. The results will help you decide how hot, cold, wet, or windy it might be!

Date:

Astronomy

Jan. 09, 2013 Rise Set
Actual Time 7:13 AM EST 5:44 PM EST
Civil Twilight 6:47 AM EST 6:09 PM EST
Nautical Twilight 6:19 AM EST 6:38 PM EST
Astronomical Twilight 5:50 AM EST 7:07 PM EST
Moon 4:50 AM EST (1/9) 3:44 PM EST (1/9)
Length of Visible Light 11h 22m
Length of Day
10h 31m
Waning Crescent, 6% of the Moon is Illuminated
Jan 9
Waning Crescent
Jan 11
New
Jan 18
First Quarter
Jan 26
Full
Feb 3
Last Quarter

Hourly Weather History & Observations

Time (EST) Temp. Heat Index Dew Point Humidity Pressure Visibility Wind Dir Wind Speed Gust Speed Precip Events Conditions
12:53 AM 73.0 °F - 70.0 °F 90% 30.20 in 9.0 mi ESE 8.1 mph - N/A   Scattered Clouds
1:53 AM 73.0 °F - 70.0 °F 90% 30.20 in 8.0 mi ESE 9.2 mph - N/A   Overcast
2:16 AM 73.4 °F - 69.8 °F 88% 30.20 in 8.0 mi ESE 11.5 mph - N/A   Overcast
2:24 AM 73.4 °F - 69.8 °F 88% 30.20 in 8.0 mi ESE 10.4 mph - N/A   Overcast
2:53 AM 73.9 °F - 70.0 °F 87% 30.21 in 8.0 mi ESE 8.1 mph - N/A   Overcast
3:10 AM 73.4 °F - 69.8 °F 88% 30.21 in 7.0 mi SE 13.8 mph 20.7 mph 0.00 in Rain Light Rain
3:14 AM 71.6 °F - 69.8 °F 94% 30.22 in 7.0 mi SE 11.5 mph 20.7 mph 0.00 in Rain Light Rain
3:49 AM 71.6 °F - 69.8 °F 94% 30.23 in 7.0 mi ESE 5.8 mph - 0.03 in Rain Light Rain
3:53 AM 71.1 °F - 69.1 °F 93% 30.22 in 9.0 mi ESE 4.6 mph - 0.03 in Rain Light Rain
4:00 AM 71.6 °F - 68.0 °F 88% 30.22 in 10.0 mi ESE 5.8 mph - 0.01 in   Overcast
4:53 AM 70.0 °F - 68.0 °F 93% 30.21 in 10.0 mi Calm Calm - 0.01 in   Overcast
5:53 AM 71.1 °F - 68.0 °F 90% 30.22 in 10.0 mi East 5.8 mph - N/A   Overcast
6:53 AM 73.9 °F - 70.0 °F 87% 30.23 in 8.0 mi ESE 12.7 mph - 0.00 in Rain Light Rain
7:53 AM 73.9 °F - 70.0 °F 87% 30.25 in 7.0 mi ESE 15.0 mph - 0.00 in   Overcast
8:53 AM 75.9 °F - 71.1 °F 85% 30.28 in 10.0 mi ESE 12.7 mph - N/A   Scattered Clouds
9:00 AM 77.0 °F - 71.6 °F 83% 30.28 in 8.0 mi ESE 13.8 mph - N/A   Mostly Cloudy
9:16 AM 77.0 °F - 71.6 °F 83% 30.29 in 8.0 mi ESE 15.0 mph - N/A   Scattered Clouds
9:53 AM 78.1 °F - 70.0 °F 76% 30.29 in 8.0 mi ESE 16.1 mph - N/A   Partly Cloudy
10:53 AM 79.0 °F - 70.0 °F 74% 30.29 in 9.0 mi ESE 18.4 mph - N/A   Scattered Clouds
11:00 AM 78.8 °F - 69.8 °F 74% 30.29 in 9.0 mi ESE 17.3 mph - N/A   Overcast
11:53 AM 80.1 °F 83.2 °F 70.0 °F 71% 30.27 in 9.0 mi SE 17.3 mph 23.0 mph N/A   Scattered Clouds
12:32 PM 80.6 °F 83.9 °F 69.8 °F 70% 30.26 in 10.0 mi ESE 16.1 mph - N/A   Overcast
12:53 PM 80.1 °F 83.2 °F 70.0 °F 71% 30.25 in 9.0 mi ESE 18.4 mph - N/A   Mostly Cloudy
1:53 PM 80.1 °F 83.2 °F 70.0 °F 71% 30.25 in 10.0 mi ESE 13.8 mph - N/A   Scattered Clouds
2:53 PM 80.1 °F 83.2 °F 70.0 °F 71% 30.24 in 10.0 mi ESE 12.7 mph - N/A   Partly Cloudy
3:53 PM 79.0 °F - 70.0 °F 74% 30.25 in 9.0 mi East 13.8 mph - N/A   Scattered Clouds
4:53 PM 77.0 °F - 70.0 °F 79% 30.25 in 9.0 mi ESE 11.5 mph - N/A   Clear
5:53 PM 73.9 °F - 70.0 °F 87% 30.26 in 8.0 mi East 8.1 mph - N/A   Partly Cloudy
6:53 PM 73.9 °F - 70.0 °F 87% 30.28 in 9.0 mi East 9.2 mph - N/A   Clear
7:53 PM 73.0 °F - 70.0 °F 90% 30.30 in 9.0 mi ESE 8.1 mph - N/A   Clear
8:53 PM 73.0 °F - 70.0 °F 90% 30.30 in 9.0 mi ESE 8.1 mph - N/A   Clear
9:53 PM 73.0 °F - 69.1 °F 87% 30.30 in 9.0 mi ESE 10.4 mph - N/A   Clear
10:53 PM 73.9 °F - 70.0 °F 87% 30.30 in 9.0 mi ESE 11.5 mph - N/A   Clear
11:53 PM 73.0 °F - 69.1 °F 87% 30.30 in 9.0 mi ESE 11.5 mph - N/A   Clear